Location: Joffre
(52.3362°N, 113.5373°W)
Time: 12:59:58
(UTC+00:00)

N. Korean satellite - Pass Details

Date: 03 December 2021
Orbit: 447 x 490 km, 97.3° (Epoch: 27 January)

Event Time Altitude Azimuth Distance (km) Brightness Sun altitude
Rises 13:06:30 0° 12° (NNE) 2,479 10.2 -20.0°
Reaches altitude 10° 13:08:34 10° 12° (NNE) 1,595 9.2 -19.7°
Maximum altitude 13:11:58 81° 286° (WNW) 462 6.2 -19.2°
Drops below altitude 10° 13:15:20 10° 198° (SSW) 1,573 9.1 -18.7°
Sets 13:17:21 0° 198° (SSW) 2,440 10.1 -18.4°
